Location: Newark
(48.1500°N, 13.1167°E)
Time: 00:47:07
(UTC+00:00)

BlueWalker 3 - Visible Passes

Search period start: 29 November 2022 00:00
Search period end: 09 December 2022 00:00
Orbit: 500 x 519 km, 53.2° (Epoch: 28 November)

Date Brightness Start Highest point End Pass type
(mag) Time Alt. Az. Time Alt. Az. Time Alt. Az.
29 Nov 2.5 16:54:49 10° W 16:58:37 48° NNW 17:00:09 30° NE visible
29 Nov 4.8 18:34:07 10° WNW 18:34:58 15° WNW 18:34:58 15° WNW visible
30 Nov 2.5 16:36:28 10° W 16:40:17 47° NNW 16:42:29 22° NE visible
30 Nov 4.3 18:15:46 10° WNW 18:17:19 21° NW 18:17:19 21° NW visible
01 Dec 2.6 16:18:08 10° W 16:21:56 46° NNW 16:24:50 16° ENE visible
01 Dec 3.7 17:57:24 10° WNW 17:59:39 28° NW 17:59:39 28° NW visible
02 Dec 2.6 15:59:47 10° W 16:03:34 45° NNW 16:07:10 11° ENE visible
02 Dec 3.0 17:39:03 10° WNW 17:42:00 36° NNW 17:42:00 36° NNW visible
03 Dec 2.6 17:20:41 10° WNW 17:24:22 41° N 17:24:22 41° N visible
04 Dec 2.5 17:02:18 10° WNW 17:06:03 42° N 17:06:45 38° NE visible
04 Dec 5.0 18:41:03 10° WNW 18:41:35 13° WNW 18:41:35 13° WNW visible
05 Dec 2.5 16:43:55 10° WNW 16:47:40 43° N 16:49:11 28° ENE visible
05 Dec 4.4 18:22:39 10° WNW 18:24:02 21° WNW 18:24:02 21° WNW visible
06 Dec 2.5 16:25:31 10° WNW 16:29:17 43° N 16:31:42 19° ENE visible
06 Dec 3.6 18:04:15 10° WNW 18:06:32 33° WNW 18:06:32 33° WNW visible
07 Dec 2.4 16:07:07 10° WNW 16:10:53 44° NNE 16:14:17 12° E visible
07 Dec 2.5 17:45:51 10° WNW 17:49:08 56° W 17:49:08 56° W visible
08 Dec 2.4 15:48:42 10° WNW 15:52:30 45° NNE 15:56:16 10° E visible
08 Dec 2.2 17:27:26 10° WNW 17:31:19 64° SSW 17:31:51 56° S visible
